Location: PSU-Greenbush Astrophysical Observatory
(37.5140°N, 94.9880°W)
Time: 13:29:40
(UTC-06:00)

deb Explorer IX - All Passes

Search period start: 24 January 2020 00:00
Search period end: 03 February 2020 00:00
Orbit: 548 x 1101 km, 38.8° (Epoch: 24 January)

Date Brightness Start Highest point End Pass type
(mag) Time Alt. Az. Time Alt. Az. Time Alt. Az.
24 Jan - 00:27:18 10° W 00:34:40 81° N 00:41:45 10° E night (unlit)
24 Jan - 02:15:05 10° WNW 02:22:24 84° SSW 02:29:03 10° ESE night (unlit)
24 Jan - 04:03:05 10° W 04:09:27 38° SSW 04:15:07 10° SSE visible
24 Jan - 20:31:58 10° SSW 20:37:38 29° SE 20:43:39 10° E visible
24 Jan - 22:17:30 10° WSW 22:24:31 71° SSE 22:31:49 10° ENE night (unlit)
25 Jan - 00:04:52 10° W 00:12:12 81° N 00:19:23 10° E night (unlit)
25 Jan - 01:52:36 10° WNW 01:59:58 84° SSW 02:06:45 10° ESE night (unlit)
25 Jan - 03:40:34 10° W 03:47:02 38° SSW 03:52:51 10° SSE visible
25 Jan - 20:09:37 10° SSW 20:15:11 29° SE 20:21:10 10° E visible
25 Jan - 21:55:08 10° WSW 22:02:03 72° SSE 22:09:22 10° ENE visible
25 Jan - 23:42:27 10° W 23:49:44 81° N 23:56:59 10° E night (unlit)
26 Jan - 01:30:08 10° WNW 01:37:29 83° SSW 01:44:24 10° ESE night (unlit)
26 Jan - 03:18:04 10° W 03:24:36 38° SSW 03:30:33 10° SSE visible
26 Jan - 19:47:18 10° SSW 19:52:44 29° SE 19:58:39 10° E visible
26 Jan - 21:32:47 10° WSW 21:39:35 72° SSE 21:46:53 10° ENE visible
26 Jan - 23:20:02 10° W 23:27:15 81° N 23:34:33 10° E night (unlit)
27 Jan - 01:07:39 10° WNW 01:15:01 83° SSW 01:22:03 10° ESE night (unlit)
27 Jan - 02:55:34 10° W 03:02:09 38° SSW 03:08:13 10° SSE night (unlit)
27 Jan - 19:24:59 10° SSW 19:30:18 29° SE 19:36:08 10° E visible
27 Jan - 21:10:26 10° WSW 21:17:07 73° SSE 21:24:23 10° ENE visible
27 Jan - 22:57:38 10° W 23:04:46 81° N 23:12:07 10° E night (unlit)
28 Jan - 00:45:12 10° WNW 00:52:31 82° SSW 00:59:40 10° ESE night (unlit)
28 Jan - 02:33:03 10° W 02:39:41 38° SSW 02:45:52 10° SSE night (unlit)
28 Jan - 19:02:41 10° SSW 19:07:52 28° SE 19:13:36 10° E visible
28 Jan - 20:48:06 10° WSW 20:54:38 73° SSE 21:01:52 10° ENE visible
28 Jan - 22:35:15 10° W 22:42:16 81° N 22:49:38 10° E visible
29 Jan - 00:22:45 10° WNW 00:30:01 82° SSW 00:37:15 10° ESE night (unlit)
29 Jan - 02:10:34 10° W 02:17:12 38° SSW 02:23:29 10° SSE night (unlit)
29 Jan - 18:40:24 10° SSW 18:45:25 28° SE 18:51:03 10° E visible
29 Jan - 20:25:47 10° WSW 20:32:10 73° SSE 20:39:20 10° ENE visible
29 Jan - 22:12:53 10° W 22:19:47 81° N 22:27:09 10° E visible
30 Jan - 00:00:18 10° WNW 00:07:31 81° SSW 00:14:48 10° ESE night (unlit)
30 Jan - 01:48:04 10° W 01:54:42 38° SSW 02:01:04 10° SSE night (unlit)
30 Jan - 18:18:08 10° SSW 18:23:00 28° SE 18:28:30 10° E visible
30 Jan - 20:03:29 10° WSW 20:09:43 74° SSE 20:16:47 10° ENE visible
30 Jan - 21:50:31 10° W 21:57:18 80° N 22:04:38 10° E visible
30 Jan - 23:37:53 10° WNW 23:45:01 81° SSW 23:52:20 10° ESE night (unlit)
31 Jan - 01:25:36 10° W 01:32:11 38° SSW 01:38:38 10° SSE night (unlit)
31 Jan - 17:55:51 10° SSW 18:00:35 28° SE 18:05:56 10° E daylight
31 Jan - 19:41:11 10° WSW 19:47:15 74° SSE 19:54:14 10° ENE visible
31 Jan - 21:28:10 10° W 21:34:48 80° N 21:42:06 10° E visible
31 Jan - 23:15:27 10° WNW 23:22:30 80° SSW 23:29:50 10° ESE night (unlit)
01 Feb - 01:03:08 10° W 01:09:41 37° SSW 01:16:10 10° SSE night (unlit)
01 Feb - 17:33:35 10° SSW 17:38:11 27° SE 17:43:23 10° E daylight
01 Feb - 19:18:54 10° WSW 19:24:49 74° SSE 19:31:40 10° ENE visible
01 Feb - 21:05:50 10° W 21:12:19 80° N 21:19:33 10° E visible
01 Feb - 22:53:03 10° WNW 22:59:59 80° SSW 23:07:20 10° ESE night (unlit)
02 Feb - 00:40:40 10° W 00:47:10 37° SSW 00:53:40 10° SSE night (unlit)
02 Feb - 17:11:21 10° SSW 17:15:47 27° SE 17:20:48 10° E daylight
02 Feb - 18:56:38 10° WSW 19:02:22 74° SSE 19:09:05 10° ENE visible
02 Feb - 20:43:30 10° W 20:49:50 80° N 20:57:00 10° E visible
02 Feb - 22:30:40 10° WNW 22:37:28 79° SSW 22:44:47 10° ESE visible
